category,name,time,total,current
太陽能(Solar),七美,00:00:00,0.2,0
太陽能(Solar),七美,00:10:00,0.2,0
太陽能(Solar),七美,00:20:00,0.2,0
太陽能(Solar),七美,00:30:00,0.2,0
太陽能(Solar),七美,00:40:00,0.2,0
太陽能(Solar),七美,00:50:00,0.2,0
太陽能(Solar),七美,01:00:00,0.2,0
太陽能(Solar),七美,01:10:00,0.2,0
太陽能(Solar),七美,01:20:00,0.2,0
太陽能(Solar),七美,01:30:00,0.2,0
太陽能(Solar),七美,01:40:00,0.2,0
太陽能(Solar),七美,01:50:00,0.2,0
太陽能(Solar),七美,02:00:00,0.2,0
太陽能(Solar),七美,02:10:00,0.2,0
太陽能(Solar),七美,02:20:00,0.2,0
太陽能(Solar),七美,02:30:00,0.2,0
太陽能(Solar),七美,02:40:00,0.2,0
太陽能(Solar),七美,02:50:00,0.2,0
太陽能(Solar),七美,03:00:00,0.2,0
太陽能(Solar),七美,03:10:00,0.2,0
太陽能(Solar),七美,03:20:00,0.2,0
太陽能(Solar),七美,03:30:00,0.2,0
太陽能(Solar),七美,03:40:00,0.2,0
太陽能(Solar),七美,03:50:00,0.2,0
太陽能(Solar),七美,04:00:00,0.2,0
太陽能(Solar),七美,04:10:00,0.2,0
太陽能(Solar),七美,04:20:00,0.2,0
太陽能(Solar),七美,04:30:00,0.2,0
太陽能(Solar),七美,04:40:00,0.2,0
太陽能(Solar),七美,04:50:00,0.2,0
太陽能(Solar),七美,05:00:00,0.2,0
太陽能(Solar),七美,05:10:00,0.2,0
太陽能(Solar),七美,05:20:00,0.2,0
太陽能(Solar),七美,05:30:00,0.2,0
太陽能(Solar),七美,05:40:00,0.2,0
太陽能(Solar),七美,05:50:00,0.2,0
太陽能(Solar),七美,06:00:00,0.2,0
太陽能(Solar),七美,06:10:00,0.2,0
太陽能(Solar),七美,06:20:00,0.2,0
太陽能(Solar),七美,06:30:00,0.2,0
太陽能(Solar),七美,06:40:00,0.2,0
太陽能(Solar),七美,06:50:00,0.2,0
太陽能(Solar),七美,07:00:00,0.2,0
太陽能(Solar),七美,07:10:00,0.2,0
太陽能(Solar),七美,07:20:00,0.2,0
太陽能(Solar),七美,07:30:00,0.2,0
太陽能(Solar),七美,07:40:00,0.2,0
太陽能(Solar),七美,07:50:00,0.2,0
太陽能(Solar),七美,08:00:00,0.2,0
太陽能(Solar),七美,08:10:00,0.2,0
太陽能(Solar),七美,08:20:00,0.2,0
太陽能(Solar),七美,08:30:00,0.2,0
太陽能(Solar),七美,08:40:00,0.2,0
太陽能(Solar),七美,08:50:00,0.2,0
太陽能(Solar),七美,09:00:00,0.2,0
太陽能(Solar),七美,09:10:00,0.2,0
太陽能(Solar),七美,09:20:00,0.2,0
太陽能(Solar),七美,09:30:00,0.2,0
太陽能(Solar),七美,09:40:00,0.2,0
太陽能(Solar),七美,09:50:00,0.2,0
太陽能(Solar),七美,10:00:00,0.2,0
太陽能(Solar),七美,10:10:00,0.2,0
太陽能(Solar),七美,10:20:00,0.2,0
太陽能(Solar),七美,10:30:00,0.2,0
太陽能(Solar),七美,10:40:00,0.2,0
太陽能(Solar),七美,10:50:00,0.2,0
太陽能(Solar),七美,11:00:00,0.2,0
太陽能(Solar),七美,11:10:00,0.2,0
太陽能(Solar),七美,11:20:00,0.2,0
太陽能(Solar),七美,11:30:00,0.2,0
太陽能(Solar),七美,11:40:00,0.2,0
太陽能(Solar),七美,11:50:00,0.2,0
太陽能(Solar),七美,12:00:00,0.2,0
太陽能(Solar),七美,12:10:00,0.2,0
太陽能(Solar),七美,12:20:00,0.2,0
太陽能(Solar),七美,12:30:00,0.2,0
太陽能(Solar),七美,12:40:00,0.2,0
太陽能(Solar),七美,12:50:00,0.2,0
太陽能(Solar),七美,13:00:00,0.2,0
太陽能(Solar),七美,13:10:00,0.2,0
太陽能(Solar),七美,13:20:00,0.2,0
太陽能(Solar),七美,13:30:00,0.2,0
太陽能(Solar),七美,13:40:00,0.2,0
太陽能(Solar),七美,13:50:00,0.2,0.075
太陽能(Solar),七美,14:00:00,0.2,0.072
太陽能(Solar),七美,14:10:00,0.2,0.07
太陽能(Solar),七美,14:20:00,0.2,0.068
太陽能(Solar),七美,14:30:00,0.2,0.067
太陽能(Solar),七美,14:40:00,0.2,0.064
太陽能(Solar),七美,14:50:00,0.2,0.062
太陽能(Solar),七美,15:00:00,0.2,0.061
太陽能(Solar),七美,15:10:00,0.2,0.057
太陽能(Solar),七美,15:20:00,0.2,0.056
太陽能(Solar),七美,15:30:00,0.2,0.052
太陽能(Solar),七美,15:40:00,0.2,0.048
太陽能(Solar),七美,15:50:00,0.2,0.045
太陽能(Solar),七美,16:00:00,0.2,0.041
太陽能(Solar),七美,16:10:00,0.2,0.037
太陽能(Solar),七美,16:20:00,0.2,0.034
太陽能(Solar),七美,16:30:00,0.2,0.029
太陽能(Solar),七美,16:40:00,0.2,0.025
太陽能(Solar),七美,16:50:00,0.2,0.02
太陽能(Solar),七美,17:00:00,0.2,0.017
太陽能(Solar),七美,17:10:00,0.2,0.012
太陽能(Solar),七美,17:20:00,0.2,0.008
太陽能(Solar),七美,17:30:00,0.2,0.003
太陽能(Solar),七美,17:40:00,0.2,0.001
太陽能(Solar),七美,17:50:00,0.2,0
太陽能(Solar),七美,18:00:00,0.2,0
太陽能(Solar),七美,18:10:00,0.2,0
太陽能(Solar),七美,18:20:00,0.2,0
太陽能(Solar),七美,18:30:00,0.2,0
太陽能(Solar),七美,18:40:00,0.2,0
太陽能(Solar),七美,18:50:00,0.2,0
太陽能(Solar),七美,19:00:00,0.2,0
太陽能(Solar),七美,19:10:00,0.2,0
太陽能(Solar),七美,19:20:00,0.2,0
太陽能(Solar),七美,19:30:00,0.2,0
太陽能(Solar),七美,19:40:00,0.2,0
太陽能(Solar),七美,19:50:00,0.2,0
太陽能(Solar),七美,20:00:00,0.2,0
太陽能(Solar),七美,20:10:00,0.2,0
太陽能(Solar),七美,20:20:00,0.2,0
太陽能(Solar),七美,20:30:00,0.2,0
太陽能(Solar),七美,20:40:00,0.2,0
太陽能(Solar),七美,20:50:00,0.2,0
太陽能(Solar),七美,21:00:00,0.2,0
太陽能(Solar),七美,21:10:00,0.2,0
太陽能(Solar),七美,21:20:00,0.2,0
太陽能(Solar),七美,21:30:00,0.2,0
太陽能(Solar),七美,21:40:00,0.2,0
太陽能(Solar),七美,21:50:00,0.2,0
太陽能(Solar),七美,22:00:00,0.2,0
太陽能(Solar),七美,22:10:00,0.2,0
太陽能(Solar),七美,22:20:00,0.2,0
太陽能(Solar),七美,22:30:00,0.2,0
太陽能(Solar),七美,22:40:00,0.2,0
太陽能(Solar),七美,22:50:00,0.2,0
太陽能(Solar),七美,23:00:00,0.2,0
太陽能(Solar),七美,23:10:00,0.2,0
太陽能(Solar),七美,23:20:00,0.2,0
太陽能(Solar),七美,23:30:00,0.2,0
太陽能(Solar),七美,23:40:00,0.2,0
太陽能(Solar),七美,23:50:00,0.2,0
